Wind_Speed
21 21 20 19 18 16 15 13 11 10 9 8 7 7 6 5 4 3 3 3 3 4 5 7 8 9 10 11 11 12 13 13 14 15 16 17 18 20 21 22 23 23
23 22 22 21 20 18 16 14 13 12 11 10 9 8 7 6 5 5 5 5 5 5 6 7 8 9 10 11 11 12 13 13 14 15 16 16 17 18 20 21 22 23
25 25 24 22 21 20 18 17 15 14 13 12 11 10 9 8 8 7 7 7 7 7 8 8 9 10 10 11 12 12 13 14 14 15 15 16 17 17 19 20 21 22
28 27 26 24 23 22 21 20 18 17 16 14 14 13 12 11 10 10 9 9 9 9 9 10 10 11 11 12 12 13 13 14 14 15 15 16 16 17 17 19 20 21
31 30 29 27 26 25 24 22 21 19 18 17 17 16 15 14 13 12 12 11 11 11 11 11 11 12 12 13 13 14 14 14 15 15 15 16 16 16 17 17 19 20
32 32 32 30 29 28 27 25 24 23 21 20 20 19 18 17 16 15 14 13 13 13 12 13 13 13 14 14 15 15 15 15 15 15 16 16 16 17 16 16 17 18
32 32 33 32 32 31 30 29 27 26 24 23 23 22 20 20 19 18 17 16 15 14 14 14 14 15 15 16 16 16 16 16 16 16 16 16 16 17 17 16 16 17
29 31 32 32 33 33 32 31 30 29 28 27 26 24 23 22 21 20 19 18 17 16 16 16 16 16 16 17 17 18 18 17 17 17 17 17 17 17 17 16 16 16
26 29 31 31 32 33 33 33 32 32 31 29 28 27 26 25 24 23 21 20 19 19 18 18 18 18 18 18 18 19 19 19 19 18 18 18 18 18 18 17 16 16
24 28 30 30 31 32 33 34 33 33 33 32 30 29 28 27 26 25 24 23 22 21 20 20 20 20 20 20 20 20 21 21 21 20 20 19 19 19 18 18 17 16
24 27 29 31 31 31 31 32 33 33 34 33 31 31 31 30 29 28 27 25 24 23 22 22 23 22 21 21 22 22 22 23 22 22 21 21 20 20 19 19 19 17
24 26 29 31 31 30 29 30 31 32 32 32 32 31 32 31 31 30 29 28 26 25 25 24 25 24 23 23 23 23 24 24 24 23 23 22 22 21 20 20 20 19
23 26 28 30 31 30 28 29 30 31 31 31 31 31 31 32 31 31 30 29 28 27 27 27 27 26 25 25 24 25 25 25 25 25 24 24 23 22 22 21 21 21
21 23 26 29 30 30 29 28 30 31 31 30 30 30 30 30 30 30 29 29 29 28 28 28 28 28 27 26 26 26 27 27 26 26 25 25 24 23 23 23 22 22
20 21 24 27 30 31 30 29 29 30 31 31 31 31 30 30 30 29 29 29 29 29 29 29 29 29 28 27 27 27 28 28 27 27 26 26 25 24 24 23 23 23
20 21 23 25 28 31 31 30 29 29 30 31 32 32 31 30 30 30 30 30 30 30 30 30 30 29 28 28 28 28 29 29 28 28 27 27 26 25 25 25 24 24
22 21 22 23 26 29 31 31 30 30 30 31 31 32 32 32 32 32 32 31 31 31 31 31 31 30 29 29 29 29 30 29 29 29 28 28 27 26 26 26 26 25
24 23 22 23 25 27 30 32 32 32 32 32 32 32 32 32 33 34 34 33 32 32 32 33 33 32 30 30 30 30 31 30 30 30 29 29 29 28 28 28 27 27
26 24 24 24 25 26 28 31 33 34 34 35 34 33 32 32 33 35 35 35 34 34 35 34 34 33 32 31 31 31 32 32 32 31 30 30 30 30 30 30 29 29
28 26 25 26 26 26 27 29 32 34 36 36 36 35 33 33 34 35 35 36 36 36 36 36 36 36 35 34 33 33 33 34 33 33 32 32 32 31 31 32 31 31
31 28 28 28 28 28 28 28 30 33 35 37 38 37 36 35 35 35 35 36 37 37 37 37 37 37 37 36 35 35 35 35 36 35 34 33 33 33 33 33 33 33
34 31 30 30 30 30 29 29 30 32 34 36 38 39 38 37 36 36 36 37 37 38 38 38 39 39 38 38 37 36 37 38 38 38 37 36 35 34 35 35 35 35
36 34 33 33 32 31 30 29 29 31 33 35 36 38 39 39 39 39 38 36 36 38 40 41 41 41 41 40 38 38 39 40 40 40 39 38 37 37 37 37 37 38
38 36 35 35 35 33 31 30 30 31 32 34 35 37 38 39 40 40 40 38 37 38 40 41 41 43 44 43 41 40 41 42 42 42 41 40 39 39 39 39 39 39
41 39 38 37 37 36 34 33 32 31 32 33 34 36 38 39 39 40 41 41 39 39 39 38 39 41 44 45 44 43 43 43 44 44 43 42 41 40 40 40 40 40
43 41 40 40 39 37 36 35 34 33 33 33 34 35 37 38 39 40 41 42 42 41 40 38 37 38 41 43 44 45 45 45 46 47 46 43 42 42 42 41 40 40
Wind_Direction
210 207 208 209 210 211 209 208 206 204 204 204 203 205 208 211 222 243 274 300 320 336 346 352 355 356 359 1 1 0 1 2 2 3 6 10 15 19 21 22 23 24
213 213 212 213 214 214 215 216 216 214 214 215 216 219 225 232 241 257 274 290 306 319 329 338 342 346 351 353 355 355 356 356 357 358 0 3 8 13 16 18 19 19
211 215 216 217 217 216 217 220 220 222 223 224 226 229 234 243 251 260 271 281 294 304 314 323 329 333 339 344 347 350 351 352 352 352 354 356 359 4 9 13 15 15
208 214 218 219 220 219 219 222 222 224 228 231 234 236 239 245 252 260 267 276 285 293 303 311 318 323 329 333 338 342 345 347 346 347 347 349 351 355 1 7 11 12
207 211 215 218 221 222 223 225 226 227 229 233 238 241 244 246 251 258 265 272 279 288 296 303 309 314 319 323 327 332 337 340 341 341 342 342 343 346 352 358 4 7
208 211 213 216 219 222 225 226 229 230 231 234 239 242 245 248 252 257 262 269 275 283 290 296 302 307 311 315 318 323 328 331 334 336 337 337 337 337 342 349 355 360
213 212 214 215 217 221 224 227 229 231 233 235 239 242 245 249 253 257 261 266 272 278 284 290 295 300 304 308 311 315 318 322 326 329 330 332 332 332 334 339 345 350
223 219 217 217 218 220 223 226 229 232 233 235 238 242 245 248 252 255 259 263 268 273 278 284 289 293 297 301 304 307 310 314 317 321 324 326 327 327 327 330 335 340
231 228 224 221 219 220 223 226 229 232 234 235 237 241 244 247 251 254 258 261 264 269 274 279 283 287 291 295 298 301 304 307 309 313 316 319 321 322 323 324 326 330
234 234 233 230 225 222 223 225 228 231 235 236 237 240 244 247 250 253 256 259 262 266 270 274 278 282 286 289 293 296 298 301 304 306 309 312 314 316 317 318 318 320
237 235 236 237 234 228 225 226 228 231 234 237 238 240 244 246 249 252 255 257 260 264 267 270 274 277 281 284 287 290 293 295 297 300 302 305 308 309 311 312 312 313
241 238 238 240 241 237 231 229 230 233 235 237 239 241 244 247 249 251 254 257 259 262 264 267 270 273 276 279 282 285 287 289 292 294 297 299 301 303 305 305 306 307
241 241 242 244 246 245 240 235 233 235 237 238 239 241 244 246 249 251 254 256 258 260 262 264 266 269 272 274 277 280 282 284 286 289 291 294 295 298 299 300 301 302
240 241 244 247 249 250 247 242 238 238 238 239 240 242 243 246 248 250 252 254 256 258 259 261 263 266 268 271 273 276 277 279 282 284 286 288 290 292 294 295 297 298
240 240 241 244 248 251 251 248 245 243 242 242 242 243 244 245 248 249 251 252 254 255 257 259 261 263 265 267 270 271 273 275 278 280 282 284 285 288 289 291 292 294
242 243 241 241 242 247 251 251 249 247 247 246 246 247 246 246 247 249 250 251 252 254 256 257 259 261 262 264 266 269 270 272 274 277 278 280 282 283 285 286 288 290
242 244 245 243 242 243 246 248 248 248 248 249 249 250 250 249 249 249 250 250 252 254 255 257 258 260 261 263 264 267 268 270 272 274 275 277 279 280 281 283 284 286
242 244 245 246 245 243 242 244 246 247 247 248 248 249 250 251 251 251 251 251 251 253 255 256 258 260 261 262 263 265 267 269 270 272 273 275 276 278 279 280 282 283
243 244 245 247 247 246 244 242 243 244 245 247 247 247 249 252 252 252 253 253 253 253 254 256 258 260 260 261 262 264 266 267 269 270 271 273 275 277 278 280 281 282
244 243 244 247 248 248 247 245 243 244 245 246 247 247 247 249 251 252 254 255 255 255 256 257 258 259 260 260 261 262 264 266 268 269 270 271 273 275 277 278 280 282
244 242 243 246 248 249 250 249 247 246 246 246 247 247 246 247 250 252 253 255 256 257 258 259 259 260 260 260 260 261 263 265 266 267 268 270 272 273 275 277 278 281
243 243 243 245 247 250 252 253 252 250 249 248 248 248 248 246 248 250 252 253 256 258 259 260 260 260 261 261 260 260 262 263 264 266 267 268 270 272 273 275 277 278
243 243 244 246 248 250 252 254 255 254 253 252 250 249 249 248 247 249 251 253 256 258 259 260 260 261 262 262 260 259 260 261 263 264 266 267 268 270 271 273 275 277
243 243 245 247 249 251 252 254 255 256 257 257 255 253 252 250 249 249 250 251 254 259 262 263 262 262 262 261 260 259 259 261 262 263 264 266 267 268 270 271 273 275
243 243 244 247 249 251 253 254 255 257 259 260 259 257 255 254 252 250 249 249 251 255 262 266 266 265 263 262 260 259 259 260 261 263 264 265 267 268 269 270 272 274
244 244 244 246 249 251 254 255 257 258 260 261 261 260 259 258 256 253 251 250 249 251 256 262 266 268 267 265 263 260 259 259 261 263 265 266 268 268 268 270 272 274
Height
11019 11021 11022 11023 11024 11026 11027 11028 11029 11030 11030 11031 11032 11032 11033 11033 11033 11033 11033 11033 11033 11033 11033 11033 11032 11032 11031 11031 11030 11030 11029 11028 11027 11027 11026 11025 11025 11024 11023 11022 11021 11019
11018 11019 11020 11022 11023 11025 11026 11027 11028 11029 11030 11030 11031 11031 11032 11032 11032 11032 11033 11033 11033 11033 11033 11032 11032 11032 11031 11031 11030 11030 11029 11028 11028 11027 11026 11026 11025 11024 11024 11023 11021 11020
11016 11018 11019 11021 11022 11024 11025 11026 11027 11028 11029 11029 11030 11030 11031 11031 11032 11032 11032 11032 11032 11032 11032 11032 11032 11031 11031 11031 11030 11030 11029 11028 11028 11027 11027 11026 11026 11025 11024 11023 11022 11021
11014 11015 11017 11019 11020 11022 11023 11024 11025 11027 11028 11029 11029 11029 11030 11030 11031 11031 11032 11032 11032 11032 11032 11032 11031 11031 11031 11030 11030 11029 11029 11028 11028 11027 11027 11027 11026 11026 11025 11024 11023 11022
11011 11013 11015 11017 11018 11020 11021 11022 11024 11025 11026 11027 11027 11028 11029 11029 11030 11030 11031 11031 11031 11031 11031 11031 11031 11031 11030 11030 11029 11029 11029 11028 11028 11027 11027 11027 11026 11026 11025 11025 11024 11023
11008 11010 11011 11014 11016 11017 11019 11020 11022 11023 11024 11025 11026 11027 11027 11028 11029 11029 11030 11030 11030 11030 11030 11030 11030 11030 11030 11029 11029 11028 11028 11028 11027 11027 11027 11026 11026 11025 11025 11025 11024 11023
11006 11007 11009 11011 11013 11014 11016 11018 11019 11020 11022 11023 11024 11025 11026 11027 11027 11028 11028 11029 11029 11029 11029 11029 11029 11029 11029 11028 11028 11028 11027 11027 11027 11026 11026 11026 11025 11025 11024 11024 11024 11023
11005 11006 11007 11008 11010 11011 11013 11015 11016 11017 11019 11020 11021 11022 11024 11025 11025 11026 11027 11027 11028 11028 11028 11028 11028 11028 11028 11027 11027 11026 11026 11026 11026 11026 11025 11025 11025 11024 11024 11023 11023 11023
11005 11005 11005 11006 11007 11008 11010 11012 11013 11015 11016 11017 11019 11020 11021 11022 11023 11024 11025 11025 11026 11026 11027 11027 11027 11027 11026 11026 11026 11025 11025 11025 11024 11024 11024 11024 11023 11023 11023 11022 11022 11022
11002 11003 11003 11004 11004 11005 11007 11009 11010 11012 11013 11014 11016 11017 11018 11019 11021 11021 11022 11023 11024 11024 11025 11025 11025 11025 11025 11024 11024 11024 11023 11023 11023 11023 11023 11022 11022 11022 11021 11021 11021 11021
10999 11000 11001 11001 11002 11003 11004 11006 11007 11009 11010 11011 11013 11015 11015 11017 11018 11019 11020 11021 11022 11022 11023 11023 11023 11023 11023 11023 11022 11022 11022 11021 11021 11021 11021 11021 11021 11020 11020 11020 11019 11020
10997 10998 10998 10998 10999 11001 11003 11004 11005 11006 11007 11009 11010 11012 11012 11013 11015 11016 11017 11018 11019 11020 11020 11020 11020 11020 11021 11021 11021 11021 11020 11020 11020 11019 11019 11019 11019 11019 11019 11018 11018 11018
10993 10995 10996 10996 10997 10999 11001 11002 11002 11003 11004 11005 11007 11008 11009 11010 11011 11013 11014 11015 11016 11017 11017 11017 11017 11017 11018 11019 11019 11019 11018 11018 11018 11018 11017 11017 11017 11017 11017 11016 11016 11016
10991 10992 10994 10995 10995 10997 10998 10999 11000 11000 11001 11002 11003 11005 11006 11007 11008 11009 11011 11012 11012 11013 11013 11014 11014 11014 11015 11016 11016 11016 11016 11015 11015 11016 11016 11015 11015 11015 11014 11014 11014 11013
10988 10990 10991 10992 10993 10994 10995 10997 10997 10998 10998 10999 11000 11001 11002 11004 11005 11006 11007 11008 11009 11009 11010 11010 11010 11011 11012 11013 11013 11013 11013 11013 11013 11013 11013 11013 11013 11013 11012 11012 11012 11011
10985 10987 10988 10989 10990 10991 10991 10993 10995 10996 10996 10996 10997 10998 10999 11000 11001 11002 11003 11004 11005 11005 11006 11007 11007 11007 11009 11009 11010 11010 11009 11010 11010 11010 11010 11010 11010 11010 11010 11010 11009 11009
10983 10984 10985 10986 10987 10987 10988 10990 10991 10992 10993 10993 10994 10995 10996 10997 10997 10998 10999 11000 11001 11002 11002 11003 11003 11004 11005 11006 11006 11006 11006 11006 11007 11007 11007 11007 11007 11007 11007 11007 11007 11007
10980 10981 10982 10983 10983 10984 10985 10986 10987 10989 10989 10989 10991 10992 10993 10994 10995 10995 10995 10997 10998 10998 10999 10999 10999 11000 11002 11003 11003 11003 11003 11003 11003 11004 11004 11004 11004 11004 11004 11004 11004 11004
10977 10978 10978 10979 10980 10981 10982 10983 10983 10984 10985 10985 10986 10988 10990 10991 10991 10991 10992 10993 10994 10995 10995 10995 10996 10997 10998 10999 11000 11000 10999 10999 11000 11000 11001 11001 11001 11001 11001 11001 11001 11001
10973 10975 10975 10975 10976 10977 10978 10979 10980 10980 10981 10981 10982 10984 10986 10987 10987 10988 10989 10990 10990 10991 10991 10992 10992 10993 10994 10995 10996 10996 10996 10996 10996 10996 10997 10997 10998 10998 10998 10998 10998 10998
10969 10971 10972 10972 10972 10973 10975 10976 10976 10977 10977 10978 10978 10979 10981 10983 10983 10985 10986 10986 10987 10987 10988 10988 10989 10989 10990 10991 10992 10993 10992 10992 10992 10992 10993 10994 10995 10995 10995 10995 10995 10994
10965 10967 10968 10968 10969 10970 10971 10972 10973 10973 10974 10974 10975 10975 10977 10979 10980 10980 10981 10982 10983 10984 10984 10985 10985 10985 10985 10987 10988 10989 10989 10988 10988 10988 10989 10990 10991 10992 10992 10992 10991 10991
10961 10963 10964 10964 10965 10967 10968 10969 10970 10970 10970 10971 10972 10972 10973 10974 10975 10976 10977 10978 10980 10980 10980 10980 10981 10981 10981 10983 10984 10985 10984 10983 10983 10984 10985 10986 10987 10988 10988 10988 10988 10988
10958 10959 10960 10960 10961 10963 10964 10966 10966 10967 10967 10967 10968 10969 10969 10970 10972 10972 10973 10974 10976 10976 10976 10976 10977 10977 10977 10978 10980 10980 10980 10979 10979 10979 10981 10982 10983 10984 10984 10984 10984 10984
10954 10956 10956 10956 10957 10958 10960 10962 10963 10963 10964 10964 10964 10965 10965 10966 10967 10968 10969 10969 10971 10972 10972 10973 10973 10973 10973 10973 10975 10975 10975 10975 10974 10974 10976 10977 10979 10979 10979 10979 10979 10979
10950 10951 10952 10952 10953 10955 10956 10957 10958 10960 10960 10960 10961 10961 10961 10962 10963 10964 10964 10965 10966 10968 10968 10969 10969 10969 10968 10968 10970 10971 10971 10971 10969 10969 10971 10973 10974 10974 10974 10974 10975 10975